Regional Weather Roundup
Issued by NWS

Home | Current Version | Previous Version | Text Only | Print | Product List | Glossary Off
Versions: 1 2 3 4 5 6 7 8 9 10 11 12 13 14 15 16 17 18 19 20 21 22 23 24 25 26 27 28 29 30 31 32 33 34 35 36 37 38 39 40 41 42 43 44 45 46 47 48 49 50

000
ASUS45 KBOU 281807
RWRCO

WEATHER ROUNDUP FOR COLORADO
NATIONAL WEATHER SERVICE DENVER/BOULDER CO
1200 PM MDT MON JUL 28 2014

NOTE: "FAIR" INDICATES FEW OR NO CLOUDS BELOW 12000 FEET WITH NO
SIGNIFICANT WEATHER AND/OR OBSTRUCTIONS TO VISIBILITY.

COZ001>005-013-030-031-281900-
...NORTHWEST COLORADO...

CITY           SKY/WX    TMP DP  RH WIND       PRES   REMARKS
CRAIG          MOSUNNY   75  50  41 NW10      30.37F
HAYDEN         MOSUNNY   79  43  27 W6        30.39F
MEEKER         MOSUNNY   81  48  31 MISG      30.38F
MOUNT WERNER   NOT AVBL
STEAMBOAT SPGS MOSUNNY   76  46  34 S3        30.42F
WALDEN         SUNNY     73  43  33 S3        30.51F
$$

COZ006>008-011-281900-
...WEST CENTRAL VALLEYS...

CITY           SKY/WX    TMP DP  RH WIND       PRES   REMARKS
GRAND JUNCTION CLOUDY    79  56  45 W6        30.30F
MONTROSE       MOSUNNY   83  51  33 N8        30.37F
EAGLE          MOSUNNY   79  46  31 CALM      30.41F
RIFLE          PTSUNNY   83  48  29 VRB5      30.33F
DELTA          MOSUNNY   86  48  26 S5        30.32F
NUCLA          CLOUDY    77  46  33 W9        30.45S
$$

COZ017>023-064>068-281900-
...SOUTHWEST COLORADO...

CITY           SKY/WX    TMP DP  RH WIND       PRES   REMARKS
DURANGO        PTSUNNY   75  52  44 SE10      30.46F
CORTEZ         CLOUDY    73  56  54 NW3       30.41F
PAGOSA SPRINGS PTSUNNY   72  47  41 W5        30.53F
TELLURIDE      NOT AVBL
WOLF CREEK PAS NOT AVBL
$$

COZ009-010-012-014-032>034-037-058>063-281900-
...CENTRAL COLORADO...

CITY           SKY/WX    TMP DP  RH WIND       PRES   REMARKS
ASPEN          PTSUNNY   74  46  36 E7        30.48F
BUENA VISTA    PTSUNNY   73  48  40 S6        30.50F
COPPER MTN     PTSUNNY   59  41  51 W10       30.81F
BERTHOUD PASS  FAIR      54  39  58 NE5       30.86F
COTTONWOOD PAS CLOUDY    68  46  45 SE5       30.64F
GUNNISON       PTSUNNY   68  48  49 NE7       30.53F
KREMMLING      MOSUNNY   77  39  25 W3        30.46F
LEADVILLE      PTSUNNY   67  43  41 NW13      30.61F
MONARCH PASS   CLOUDY    50  45  81 SW14      30.91F
SALIDA         PTSUNNY   73  54  52 CALM      30.54F
SUNLIGHT       CLOUDY    63  52  67 CALM      30.74F
WILKERSON PASS NOT AVBL
$$

COZ069>075-281900-
...SAN LUIS VALLEY/SANGRE DE CRISTO MOUNTAINS...

CITY           SKY/WX    TMP DP  RH WIND       PRES   REMARKS
ALAMOSA        CLOUDY    65  55  70 SE6       30.52F
LA VETA PASS   CLOUDY    55  50  82 SW8       30.69S
SAGUACHE       CLOUDY    64  52  63 S5        30.55F
$$

COZ035-036-038>040-281900-
...NORTHERN COLORADO FRONT RANGE...

CITY           SKY/WX    TMP DP  RH WIND       PRES   REMARKS
DENVER INTL AP PTSUNNY   79  55  43 SE7       30.34F
DMNS CITY PARK   N/A     80  57  45 N5G10     30.33F
AURORA         PTSUNNY   76  59  53 VRB6      30.37
FRONT RANGE AP NOT AVBL
ERIE MUNI ARPT MOSUNNY   78  58  49 CALM      30.32F
BOULDER MUN AP SUNNY     79  57  47 N7        30.34F
CENTENNIAL     PTSUNNY   76  55  48 VRB5      30.37F
BROOMFIELD     PTSUNNY   77  57  50 N7        30.37F
FORT COLLINS   SUNNY     81  59  47 N7        30.33F
LONGMONT       SUNNY     82  59  44 NE3       30.34F
$$

COZ041-046-047-076>085-087-088-281900-
...PIKES PEAK/PALMER DIVIDE AND SOUTHERN FOOTHILLS...

CITY           SKY/WX    TMP DP  RH WIND       PRES   REMARKS
COLO. SPRINGS  CLOUDY    67  60  78 S7        30.44F
A. F. ACADEMY  PTSUNNY   68  58  71 SE13      30.44S
ELLICOTT       CLOUDY    68  59  73 S12       30.43S
FALCON         CLOUDY    66  59  77 S10       30.49S
FORT CARSON    CLOUDY    67  60  79 VRB5      30.42F
LIMON          PTSUNNY   76  57  51 S16G29    30.38F
MONUMENT HILL  MOSUNNY   72  57  60 SE14      30.46S
TRINIDAD       PTSUNNY   72  55  55 CALM      30.40F
$$

COZ042>045-048>051-090-091-281900-
...NORTHEAST COLORADO...

CITY           SKY/WX    TMP DP  RH WIND       PRES   REMARKS
GREELEY ARPT   SUNNY     79  57  47 CALM      30.32F
AKRON          MOSUNNY   84  54  35 S14G24    30.32F
BURLINGTON     MOSUNNY   78  55  44 S18G25    30.35S
WRAY             N/A     87  55  34 S9G20     30.29F
STERLING       PTSUNNY   88  61  40 SE3       30.28F
HOLYOKE        SUNNY     81  57  44 SE12      30.31F
FORT MORGAN    SUNNY     85  53  32 SE7       30.32S
$$

COZ086-089-092>099-281900-
...SOUTHEAST COLORADO...

CITY           SKY/WX    TMP DP  RH WIND       PRES   REMARKS
PUEBLO         PTSUNNY   74  64  71 SE10      30.34F
LA JUNTA       MOSUNNY   76  63  64 SE16      30.33F
LAMAR          CLOUDY    77  62  59 S15       30.32F
SPRINGFIELD      N/A     66  60  81 S12       30.39F
$$



USA.gov is the U.S. government's official web portal to all federal, state and local government web resources and services.